Weather History for KAGS - October, 2011

Change the Weather History Date:

Monday, October 24, 2011

  Actual Average Record
Temperature  
Mean Temperature 59 °F 62 °F  
Max Temperature 77 °F 75 °F 90 °F (1927)
Min Temperature 40 °F 48 °F 30 °F (1974)
Degree Days  
Heating Degree Days 6 5  
Month to date heating degree days 79 66  
Since 1 July heating degree days 79 73  
Cooling Degree Days 0 2  
Month to date cooling degree days 22 79  
Year to date cooling degree days 2502 2063  
Growing Degree Days 8 (Base 50)    
Moisture  
Dew Point 46 °F    
Average Humidity 68    
Maximum Humidity 100    
Minimum Humidity 35    
Precipitation  
Precipitation 0.00 in 0.09 in 1.99 in (1947)
Month to date precipitation 1.44 2.69  
Year to date precipitation 26.49 36.78  
Sea Level Pressure  
Sea Level Pressure 30.11 in    
Wind  
Wind Speed 2 mph (NW)    
Max Wind Speed 12 mph    
Max Gust Speed 18 mph    
Visibility 8 miles    
Events      
T = Trace of Precipitation, MM = Missing Value Source: NWS Daily Summary

Daily Weather History Graph

Daily Weather History Graph

Search for Another Location

Airport or City:

Trip Planner

Search our weather history database for the weather conditions in past years. The results will help you decide how hot, cold, wet, or windy it might be!

Date:

Astronomy

Oct. 24, 2011 Rise Set
Actual Time 7:39 AM EDT 6:44 PM EDT
Civil Twilight 7:14 AM EDT 7:09 PM EDT
Nautical Twilight 6:45 AM EDT 7:38 PM EDT
Astronomical Twilight 6:16 AM EDT 8:07 PM EDT
Moon 5:02 AM EDT (10/24) 5:04 PM EDT (10/24)
Length of Visible Light 11h 55m
Length of Day
11h 04m
Waning Crescent, 7% of the Moon is Illuminated
Oct 24
Waning Crescent
Oct 26
New
Nov 2
First Quarter
Nov 10
Full
Nov 18
Last Quarter

Hourly Weather History & Observations

Time (EDT) Temp. Dew Point Humidity Pressure Visibility Wind Dir Wind Speed Gust Speed Precip Events Conditions
12:53 AM 48.2 °F 46.4 °F 93% 30.12 in 9.0 mi Calm Calm - N/A   Clear
1:53 AM 46.0 °F 45.0 °F 96% 30.11 in 4.0 mi Calm Calm - N/A   Clear
2:53 AM 44.1 °F 43.0 °F 96% 30.10 in 3.0 mi Calm Calm - N/A   Clear
3:53 AM 45.0 °F 43.0 °F 93% 30.09 in 6.0 mi Calm Calm - N/A   Clear
4:53 AM 43.0 °F 41.0 °F 93% 30.09 in 9.0 mi Calm Calm - N/A   Clear
5:53 AM 42.1 °F 41.0 °F 96% 30.10 in 2.0 mi Calm Calm - N/A   Clear
6:00 AM 42.8 °F 42.8 °F 100% 30.10 in 1.5 mi Calm Calm - N/A   Clear
6:04 AM 42.8 °F 42.8 °F 100% 30.10 in 3.0 mi Calm Calm - N/A   Clear
6:40 AM 42.8 °F 42.8 °F 100% 30.11 in 6.0 mi Calm Calm - N/A   Clear
6:53 AM 43.0 °F 42.1 °F 97% 30.11 in 8.0 mi Calm Calm - N/A   Clear
7:53 AM 41.0 °F 39.9 °F 96% 30.12 in 8.0 mi Calm Calm - N/A   Clear
8:53 AM 48.9 °F 46.9 °F 93% 30.14 in 7.0 mi Calm Calm - N/A   Clear
9:53 AM 57.0 °F 51.1 °F 81% 30.16 in 7.0 mi North 3.5 mph - N/A   Clear
10:53 AM 64.0 °F 51.1 °F 63% 30.15 in 10.0 mi Calm Calm - N/A   Clear
11:53 AM 69.1 °F 50.0 °F 51% 30.14 in 10.0 mi Calm Calm - N/A   Clear
12:53 PM 72.0 °F 46.9 °F 41% 30.12 in 10.0 mi WNW 5.8 mph - N/A   Clear
1:53 PM 73.0 °F 46.9 °F 39% 30.09 in 10.0 mi WNW 3.5 mph - N/A   Clear
2:53 PM 75.2 °F 46.4 °F 36% 30.08 in 10.0 mi NNW 9.2 mph - N/A   Clear
3:53 PM 75.9 °F 46.0 °F 35% 30.07 in 10.0 mi North 9.2 mph - N/A   Partly Cloudy
4:53 PM 73.9 °F 45.0 °F 35% 30.07 in 10.0 mi NW 5.8 mph - N/A   Clear
5:53 PM 73.0 °F 46.0 °F 38% 30.08 in 10.0 mi NNW 4.6 mph - N/A   Clear
6:53 PM 64.0 °F 50.0 °F 60% 30.09 in 10.0 mi West 3.5 mph - N/A   Clear
7:53 PM 57.0 °F 51.1 °F 81% 30.10 in 10.0 mi Calm Calm - N/A   Clear
8:53 PM 54.0 °F 50.0 °F 86% 30.12 in 10.0 mi Calm Calm - N/A   Clear
9:53 PM 51.8 °F 48.2 °F 88% 30.14 in 10.0 mi Calm Calm - N/A   Clear
10:53 PM 51.1 °F 48.9 °F 92% 30.14 in 10.0 mi Calm Calm - N/A   Clear
11:53 PM 48.9 °F 48.0 °F 97% 30.15 in 6.0 mi Calm Calm - N/A   Clear